Location: Antoign�
(47.0844°N, 0.1131°W)
Time: 07:43:18
(UTC+00:00)

Ariane Rocket - Pass Details

Date: 03 March 2021
Orbit: 759 x 771 km, 98.7° (Epoch: 11 April)

Event Time Altitude Azimuth Distance (km) Brightness Sun altitude
Exits shadow 18:42:04 11° 107° (ESE) 2,218 4.8 -9.8°
Maximum altitude 18:45:35 22° 60° (ENE) 1,634 4.2 -10.4°
Drops below altitude 10° 18:49:27 10° 11° (N) 2,323 5.4 -11.1°
Sets 18:52:12 0° 357° (N) 3,253 6.3 -11.6°
